Ketchikan, AK

2:57 AM AKST on January 21, 2019 (GMT -0900)
Ketchikan International

Weather History for PAKT - December, 2018

Change the Weather History Date:

Wednesday, December 5, 2018

  Actual Average Record
Temperature  
Mean Temperature 32 °F -  
Max Temperature 36 °F 40 °F 60 °F (1959)
Min Temperature 27 °F 31 °F 15 °F (1977)
Degree Days  
Heating Degree Days 34    
Moisture  
Dew Point 29 °F    
Average Humidity 87    
Maximum Humidity 93    
Minimum Humidity 79    
Precipitation  
Precipitation 0.00 in - - ()
Sea Level Pressure  
Sea Level Pressure 30.28 in    
Wind  
Wind Speed 7 mph (NW)    
Max Wind Speed 14 mph    
Max Gust Speed -    
Visibility 10 miles    
Events      
Averages and records for this station are not official NWS values.
T = Trace of Precipitation, MM = Missing Value Source: NWS Daily Summary

Daily Weather History Graph

Daily Weather History Graph

Search for Another Location

Airport or City:

Astronomy

Dec. 05, 2018 Rise Set
Actual Time 7:56 AM AKST 3:18 PM AKST
Civil Twilight 7:11 AM AKST 4:03 PM AKST
Nautical Twilight 6:23 AM AKST 4:50 PM AKST
Astronomical Twilight 5:39 AM AKST 5:35 PM AKST
Moon 5:45 AM AKST (12/5) 3:01 PM AKST (12/5)
Length of Visible Light 8h 52m
Length of Day
7h 22m
Waning Crescent, 2% of the Moon is Illuminated
Dec 5
Waning Crescent
Dec 6
New
Dec 15
First Quarter
Dec 22
Full
Dec 29
Last Quarter

Hourly Weather History & Observations

Time (AKST) Temp. Windchill Dew Point Humidity Pressure Visibility Wind Dir Wind Speed Gust Speed Precip Events Conditions
12:53 AM 34.0 °F 28.0 °F 30.0 °F 85% 30.38 in 10.0 mi NW 6.9 mph - N/A   Clear
1:53 AM 32.0 °F - 30.0 °F 92% 30.37 in 10.0 mi Calm Calm - N/A   Clear
2:19 AM 30.9 °F - 28.9 °F 92% 30.37 in 10.0 mi Calm Calm - N/A   Partly Cloudy
2:53 AM 32.0 °F 23.6 °F 28.9 °F 88% 30.37 in 10.0 mi NNW 10.4 mph - N/A   Partly Cloudy
3:53 AM 34.0 °F 25.5 °F 30.0 °F 85% 30.35 in 10.0 mi NNW 11.5 mph - N/A   Partly Cloudy
4:46 AM 34.0 °F 25.5 °F 30.9 °F 89% 30.34 in 10.0 mi NNW 11.5 mph - N/A   Mostly Cloudy
4:53 AM 34.0 °F 25.5 °F 30.9 °F 89% 30.34 in 10.0 mi NNW 11.5 mph - N/A   Mostly Cloudy
5:53 AM 34.0 °F 26.0 °F 30.9 °F 89% 30.32 in 10.0 mi NW 10.4 mph - N/A   Mostly Cloudy
6:04 AM 33.8 °F 27.0 °F 30.2 °F 87% 30.32 in 10.0 mi NW 8.1 mph - N/A   Scattered Clouds
6:53 AM 33.1 °F 26.1 °F 30.0 °F 89% 30.31 in 10.0 mi NW 8.1 mph - N/A   Clear
7:53 AM 33.8 °F 24.8 °F 30.2 °F 87% 30.31 in 10.0 mi North 12.7 mph - N/A   Partly Cloudy
8:53 AM 33.8 °F 24.8 °F 30.2 °F 87% 30.31 in 10.0 mi NW 12.7 mph - N/A   Scattered Clouds
9:53 AM 35.6 °F 27.1 °F 30.2 °F 81% 30.30 in 10.0 mi NNW 12.7 mph - N/A   Scattered Clouds
10:51 AM 35.6 °F 27.5 °F 30.2 °F 81% 30.28 in 10.0 mi NW 11.5 mph - N/A   Partly Cloudy
10:53 AM 35.6 °F 28.0 °F 30.2 °F 81% 30.29 in 10.0 mi NW 10.4 mph - N/A   Partly Cloudy
11:53 AM 36.0 °F 27.1 °F 30.0 °F 79% 30.27 in 10.0 mi NW 13.8 mph - N/A   Clear
12:53 PM 35.6 °F 27.1 °F 30.2 °F 81% 30.25 in 10.0 mi NW 12.7 mph - N/A   Partly Cloudy
1:53 PM 35.6 °F 27.1 °F 30.2 °F 81% 30.24 in 10.0 mi NNW 12.7 mph - N/A   Mostly Cloudy
2:53 PM 35.6 °F 27.1 °F 30.2 °F 81% 30.23 in 10.0 mi NNW 12.7 mph - N/A   Clear
3:53 PM 34.0 °F 26.6 °F 30.9 °F 89% 30.23 in 10.0 mi NW 9.2 mph - N/A   Clear
4:53 PM 33.8 °F 27.7 °F 30.2 °F 87% 30.23 in 10.0 mi North 6.9 mph - N/A   Scattered Clouds
5:53 PM 32.0 °F 28.7 °F 28.9 °F 88% 30.23 in 10.0 mi West 3.5 mph - N/A   Partly Cloudy
6:53 PM 30.2 °F 26.7 °F 28.4 °F 93% 30.22 in 10.0 mi SW 3.5 mph - N/A   Mostly Cloudy
7:53 PM 28.4 °F 24.6 °F 26.6 °F 93% 30.22 in 10.0 mi West 3.5 mph - N/A   Clear
8:53 PM 28.9 °F - 27.0 °F 92% 30.21 in 10.0 mi Calm Calm - N/A   Clear
9:53 PM 27.0 °F - 24.1 °F 89% 30.20 in 10.0 mi Calm Calm - N/A   Clear
10:53 PM 27.0 °F - 24.1 °F 89% 30.20 in 10.0 mi Calm Calm - N/A   Clear
11:40 PM 27.0 °F 21.6 °F 25.0 °F 92% 30.19 in 1.8 mi SSW 4.6 mph - N/A   Scattered Clouds
11:55 PM 27.0 °F - 25.0 °F 92% 30.19 in 4.0 mi Calm Calm - N/A   Scattered Clouds